Weather History for KACT - June, 2013

Change the Weather History Date:

Monday, June 17, 2013

  Actual Average Record
Temperature  
Mean Temperature 83 °F 82 °F  
Max Temperature 95 °F 92 °F 104 °F (2011)
Min Temperature 71 °F 71 °F 58 °F (1917)
Degree Days  
Heating Degree Days 0 0  
Month to date heating degree days 0 0  
Since 1 June heating degree days 0 0  
Since 1 July heating degree days 2023 2142  
Cooling Degree Days 18 17  
Month to date cooling degree days 271 257  
Year to date cooling degree days 688 709  
Since 1 June cooling degree days 271 257  
Growing Degree Days 33 (Base 50)    
Moisture  
Dew Point 69 °F    
Average Humidity 67    
Maximum Humidity 87    
Minimum Humidity 46    
Precipitation  
Precipitation 0.01 in 0.11 in 6.40 in (1938)
Month to date precipitation 1.53 2.26  
Year to date precipitation 15.62 17.15  
Sea Level Pressure  
Sea Level Pressure 29.92 in    
Wind  
Wind Speed 10 mph (SSE)    
Max Wind Speed 25 mph    
Max Gust Speed 33 mph    
Visibility 10 miles    
Events Rain    
T = Trace of Precipitation, MM = Missing Value Source: NWS Daily Summary

Daily Weather History Graph

Daily Weather History Graph

Search for Another Location

Airport or City:

Trip Planner

Search our weather history database for the weather conditions in past years. The results will help you decide how hot, cold, wet, or windy it might be!

Date:

Astronomy

Jun. 17, 2013 Rise Set
Actual Time 6:23 AM CDT 8:36 PM CDT
Civil Twilight 5:55 AM CDT 9:04 PM CDT
Nautical Twilight 5:21 AM CDT 9:38 PM CDT
Astronomical Twilight 4:44 AM CDT 10:15 PM CDT
Moon 2:34 PM CDT (6/17) 1:40 AM CDT (6/17)
Length of Visible Light 15h 08m
Length of Day
14h 12m
First Quarter, 60% of the Moon is Illuminated
Jun 17
First Quarter
Jun 23
Full
Jun 29
Last Quarter
Jul 8
New
Jul 15
First Quarter

Hourly Weather History & Observations

Time (CDT) Temp. Heat Index Dew Point Humidity Pressure Visibility Wind Dir Wind Speed Gust Speed Precip Events Conditions
12:51 AM 84.0 °F 87.0 °F 68.0 °F 58% 29.91 in 10.0 mi South 11.5 mph - N/A   Clear
1:51 AM 82.0 °F 85.9 °F 70.0 °F 67% 29.91 in 10.0 mi South 12.7 mph - N/A   Clear
2:51 AM 80.1 °F 83.6 °F 71.1 °F 74% 29.88 in 10.0 mi South 10.4 mph - N/A   Clear
3:51 AM 79.0 °F - 72.0 °F 79% 29.89 in 10.0 mi South 10.4 mph - N/A   Clear
4:51 AM 78.1 °F - 71.1 °F 79% 29.90 in 10.0 mi SSW 13.8 mph - N/A   Clear
5:51 AM 77.0 °F - 72.0 °F 84% 29.92 in 10.0 mi South 9.2 mph - N/A   Clear
6:51 AM 77.0 °F - 72.0 °F 84% 29.93 in 8.0 mi South 10.4 mph - N/A   Clear
7:51 AM 79.0 °F - 72.0 °F 79% 29.96 in 9.0 mi South 6.9 mph - N/A   Clear
8:51 AM 82.0 °F 86.7 °F 72.0 °F 71% 29.98 in 10.0 mi SSW 9.2 mph - N/A   Scattered Clouds
9:46 AM 75.2 °F - 64.4 °F 69% 30.05 in 10.0 mi North 23.0 mph 33.4 mph N/A   Overcast
9:51 AM 75.0 °F - 64.0 °F 69% 30.03 in 10.0 mi North 21.9 mph 33.4 mph N/A   Overcast
9:58 AM 73.4 °F - 66.2 °F 78% 30.06 in 8.0 mi North 15.0 mph 28.8 mph 0.00 in Rain Light Rain
10:14 AM 71.6 °F - 68.0 °F 88% 30.06 in 5.0 mi NNE 11.5 mph - 0.01 in Rain Light Rain
10:51 AM 73.0 °F - 69.1 °F 87% 30.02 in 10.0 mi NE 9.2 mph - 0.01 in   Overcast
11:51 AM 80.1 °F 83.2 °F 70.0 °F 71% 29.98 in 10.0 mi East 6.9 mph - N/A   Mostly Cloudy
12:51 PM 87.1 °F 90.6 °F 68.0 °F 53% 29.94 in 10.0 mi SSE 6.9 mph - N/A   Clear
1:51 PM 89.1 °F 93.7 °F 69.1 °F 52% 29.92 in 10.0 mi South 8.1 mph - N/A   Clear
2:51 PM 93.0 °F 99.0 °F 70.0 °F 47% 29.90 in 10.0 mi South 8.1 mph - N/A   Clear
3:51 PM 93.9 °F 99.1 °F 69.1 °F 44% 29.88 in 10.0 mi South 10.4 mph 17.3 mph N/A   Clear
4:51 PM 93.9 °F 100.3 °F 70.0 °F 46% 29.86 in 10.0 mi South 8.1 mph - N/A   Scattered Clouds
5:51 PM 93.9 °F 99.1 °F 69.1 °F 44% 29.85 in 10.0 mi South 8.1 mph - N/A   Clear
6:51 PM 93.9 °F 99.1 °F 69.1 °F 44% 29.82 in 10.0 mi South 9.2 mph - N/A   Clear
7:51 PM 91.0 °F 95.6 °F 69.1 °F 48% 29.83 in 10.0 mi SSE 6.9 mph - N/A   Clear
8:51 PM 86.0 °F 90.1 °F 69.1 °F 57% 29.83 in 10.0 mi ESE 6.9 mph - N/A   Clear
9:51 PM 84.0 °F 87.8 °F 69.1 °F 61% 29.84 in 10.0 mi SE 6.9 mph - N/A   Clear
10:51 PM 87.1 °F 90.6 °F 68.0 °F 53% 29.86 in 10.0 mi SE 10.4 mph - N/A   Clear
11:51 PM 86.0 °F 89.4 °F 68.0 °F 55% 29.87 in 10.0 mi SE 10.4 mph - N/A   Clear